Location: Cisewo
(53.3833°N, 14.9000°E)
Time: 14:09:13
(UTC+00:00)

NOSS 2-2 (E) - Pass Details

Date: 18 April 2021
Orbit: 459 x 1746 km, 63.3° (Epoch: 02 May)

Event Time Altitude Azimuth Distance (km) Brightness Sun altitude
Rises 22:30:08 0° 311° (NW) 2,965 7.8 -25.2°
Reaches altitude 10° 22:32:09 10° 314° (NW) 2,183 7.0 -25.2°
Maximum altitude 22:37:09 77° 41° (NE) 903 4.3 -25.3°
Enters shadow 22:39:20 43° 118° (ESE) 1,323 4.9 -25.3°
